GW4545 Weather Reports


time (UTC)temp
F
wind
direction
speed
knots
gust
knots
rain 1hr
in
rain 24hr
in
rain mn
in
humidity
%
barometer
mb
20260503030059 65 54 1.7 9.6 0.00 0.00 0.00 71 1013.5
20260503024542 67 110 1.7 5.2 0.00 0.00 0.00 72 1013.2
20260503023046 67 152 1.7 4.3 0.00 0.00 0.00 72 1012.9
20260503021543 69 159 2.6 3.5 0.00 0.00 0.00 67 1012.4
20260503020042 72 209 0.0 3.5 0.00 0.00 0.00 64 1012.5
20260503014557 73 286 0.9 2.6 0.00 0.00 0.00 57 1012.4
20260503013041 73 249 0.9 2.6 0.00 0.00 0.00 55 1012.4
20260503011548 73 0 0.0 3.5 0.00 0.00 0.00 55 1012.5
20260503010053 73 5 2.6 6.1 0.00 0.00 0.00 53 1012.7
20260503004608 73 279 0.9 7.0 0.00 0.00 0.00 57 1012.6
20260503003053 73 34 1.7 7.0 0.00 0.00 0.00 56 1012.7
20260503001541 73 272 3.5 10.4 0.00 0.00 0.00 54 1012.7
20260503000047 73 309 2.6 8.7 0.00 0.00 0.00 52 1012.9
20260502234545 73 5 1.7 7.0 0.00 0.00 0.00 56 1013.0
20260502233044 72 348 1.7 7.8 0.00 0.00 0.00 56 1013.3
20260502231542 72 301 1.7 7.8 0.00 0.00 0.00 56 1013.4
20260502230044 72 318 1.7 8.7 0.00 0.00 0.00 54 1013.4
20260502224546 72 306 3.5 7.8 0.00 0.00 0.00 53 1013.8
20260502223050 71 306 5.2 8.7 0.00 0.00 0.00 55 1014.1
20260502221547 71 298 3.5 9.6 0.00 0.00 0.00 57 1014.3
20260502220049 70 303 4.3 8.7 0.00 0.00 0.00 59 1014.5
20260502214542 70 43 1.7 7.0 0.00 0.00 0.00 57 1014.7
20260502213048 68 294 1.7 4.3 0.00 0.00 0.00 62 1014.9
20260502211542 67 13 0.9 4.3 0.00 0.00 0.00 65 1015.0
20260502210047 65 51 2.6 5.2 0.00 0.00 0.00 66 1015.4
20260502204559 64 24 0.9 3.5 0.00 0.00 0.00 69 1015.5
20260502203109 62 35 1.7 6.1 0.00 0.00 0.00 73 1015.6
20260502201547 59 186 2.6 5.2 0.00 0.00 0.00 75 1015.8
20260502200042 59 115 1.7 5.2 0.00 0.00 0.00 77 1015.9
20260502194542 59 128 1.7 6.1 0.00 0.00 0.00 75 1016.3
20260502193041 60 0 0.9 4.3 0.00 0.00 0.00 72 1016.3
20260502191550 61 32 1.7 4.3 0.00 0.00 0.00 70 1016.3
20260502190042 61 0 0.9 4.3 0.00 0.00 0.00 70 1016.6
20260502184542 60 44 1.7 7.0 0.00 0.00 0.00 71 1016.7
20260502183042 59 30 1.7 7.0 0.00 0.00 0.00 73 1017.1
20260502181606 58 5 1.7 4.3 0.00 0.00 0.00 74 1017.0
20260502163055 53 352 1.7 5.2 0.00 0.00 0.00 80 1017.4
20260502161547 52 320 3.5 7.8 0.00 0.00 0.00 81 1017.7
20260502151550 48 342 0.9 5.2 0.00 0.00 0.00 87 1016.8
20260502123046 44 0 0.0 1.7 0.00 0.00 0.00 89 1017.4
20260502121541 44 211 1.7 3.5 0.00 0.00 0.00 89 1017.5
20260502114553 45 0 0.9 2.6 0.00 0.00 0.00 87 1017.5
20260502113046 46 173 0.0 3.5 0.00 0.00 0.00 86 1017.4
20260502111542 47 209 0.9 2.6 0.00 0.00 0.00 84 1017.0
20260502110044 47 306 0.9 3.5 0.00 0.00 0.00 84 1016.8
20260502104542 47 326 0.0 5.2 0.00 0.00 0.00 83 1017.0
20260502103040 48 275 0.9 7.0 0.00 0.00 0.00 82 1017.2
20260502101550 48 318 1.7 7.8 0.00 0.00 0.00 81 1017.3
20260502070044 52 293 0.9 2.6 0.00 0.00 0.00 72 1018.2
20260502064557 52 0 0.0 2.6 0.00 0.00 0.00 70 1018.2
20260502063041 53 0 0.0 2.6 0.00 0.00 0.00 70 1018.1
20260502061545 53 300 0.9 3.5 0.00 0.00 0.00 71 1018.0
20260502060049 53 0 0.9 2.6 0.00 0.00 0.00 72 1017.9
20260502054555 53 0 0.0 1.7 0.00 0.00 0.00 70 1017.7
20260502053046 54 0 0.9 2.6 0.00 0.00 0.00 69 1017.7
20260502051543 54 351 1.7 3.5 0.00 0.00 0.00 68 1017.5
20260502050045 54 5 0.9 4.3 0.00 0.00 0.00 67 1017.3
20260502044547 55 18 0.9 3.5 0.00 0.00 0.00 65 1017.3
20260502043046 56 0 1.7 7.8 0.00 0.00 0.00 65 1017.2
20260502041546 56 273 3.5 7.0 0.00 0.00 0.00 63 1017.0
20260502040056 57 309 0.9 4.3 0.00 0.00 0.00 63 1017.1
20260502034545 58 5 2.6 7.0 0.00 0.00 0.00 59 1017.0
20260502033040 58 342 2.6 7.0 0.00 0.00 0.00 58 1016.8
20260502031547 59 342 1.7 7.0 0.00 0.00 0.00 59 1016.7